User: anonymous   Login
Location: Broletto
(44.6000°N, 10.5833°E)
Time: 02:40:06
(UTC+00:00)
Language:

Cosmos 1302 Rocket - Orbit

View from above orbital plane
View from above orbital plane
View from above satellite
View from above satellite

Ground track
Ground track

The orbit data is extracted from the following two-line orbital elements,

1 12792U 81084B   21169.56779589 -.00000013  00000-0  44832-5 0  9998
2 12792  74.0290 223.0119 0013094 158.3556 201.8154 14.37623089 84874
Epoch (UTC): 18 June 2021 13:37:37
Eccentricity: 0.0013094
inclination: 74.0290°
perigee height: 757 km
apogee height: 776 km
right ascension of ascending node: 223.0119°
argument of perigee: 158.3556°
revolutions per day: 14.37623089
mean anomaly at epoch: 201.8154°
orbit number at epoch: 8487

The dashed part of the orbit path shows where the satellite is in the earth's shadow,  

DLR